This demonstration page uses our WeatherBlox Daily Observations layout. Learn more.

Hourly Observations for May 27, 2017

Temp ( °F °C ) Dew Point ( °F °C ) Humidity (%) Winds ( mph kmh ) Pressure ( in mb ) Visibility ( mi km ) Precip ( " mm )
12:15 am 00:15 Partly Cloudy 64 17.5 50 10.2 62 62 ESE 8 13 29.85 1011 10 16.09344 0 0
12:35 am 00:35 Mostly Cloudy 62 16.4 51 10.6 69 69 NNE 5 7 29.85 1011 10 16.09344 0 0
12:55 am 00:55 Cloudy with Light Rain 61 16.3 51 10.7 70 70 Calm 29.88 1012 10 16.09344 0 0
1:15 am 01:15 Cloudy with Rain 61 16 53 11.7 76 76 SW 8 13 29.94 1014 10 16.09344 0.01 0.254
1:35 am 01:35 Cloudy with Rain 60 15.3 55 12.5 84 84 Calm 29.94 1014 5 8.04672 0.06 1.524
1:55 am 01:55 Cloudy with Rain 59 15 55 12.6 86 86 Calm 29.94 1014 10 16.09344 0.09 2.286
2:15 am 02:15 Cloudy with Rain 60 15.4 53 11.9 80 80 E 5 7 29.94 1014 5 8.04672 0.06 1.524
2:35 am 02:35 Cloudy with Rain 58 14.4 54 12.2 87 87 ENE 7 11 29.91 1013 10 16.09344 0.1 2.54
2:55 am 02:55 Cloudy 58 14.2 55 12.6 90 90 E 7 11 29.88 1012 N/A 0.12 3.048
3:15 am 03:15 Cloudy 58 14.5 56 13.1 91 91 ESE 16 26 29.85 1011 N/A 0.02 0.508
3:35 am 03:35 undefined 58 14.5 56 13.1 91 91 Calm 29.88 1012 N/A 0.04 1.016
3:55 am 03:55 Mostly Cloudy 57 14 55 12.7 92 92 ENE 8 13 29.85 1011 10 16.09344 0.04 1.016
4:15 am 04:15 Partly Cloudy with Nearby Thunderstorms 57 13.8 55 12.5 92 92 E 7 11 29.85 1011 10 16.09344 0 0
4:35 am 04:35 Clear 56 13.6 54 12.1 91 91 E 5 7 29.88 1012 10 16.09344 0 0
4:55 am 04:55 Clear 56 13.3 54 12 92 92 ESE 6 9 29.85 1011 10 16.09344 0 0
5:15 am 05:15 Clear 56 13.3 53 11.7 90 90 E 3 6 29.85 1011 10 16.09344 0 0
5:35 am 05:35 Clear 55 13 52 11.3 90 90 NNE 6 9 29.88 1012 10 16.09344 0 0
5:55 am 05:55 Clear 55 12.8 52 11.2 90 90 NNE 8 13 29.88 1012 10 16.09344 0 0
6:15 am 06:15 Sunny 55 12.5 52 10.9 90 90 NE 8 13 29.88 1012 10 16.09344 0 0
6:35 am 06:35 Sunny 55 12.5 51 10.8 89 89 NNE 9 15 29.88 1012 10 16.09344 0 0
6:55 am 06:55 Sunny 55 12.5 51 10.6 88 88 NNE 13 20 29.88 1012 10 16.09344 0 0
7:15 am 07:15 Sunny 55 12.6 51 10.7 88 88 NE 12 19 29.88 1012 10 16.09344 0 0
7:35 am 07:35 Sunny 55 13 51 10.6 85 85 NE 9 15 29.88 1012 10 16.09344 0 0
7:55 am 07:55 Sunny 56 13.2 51 10.8 86 86 ENE 7 11 29.88 1012 10 16.09344 0 0
8:15 am 08:15 Sunny 56 13.5 52 11 85 85 ENE 7 11 29.88 1012 10 16.09344 0 0
8:35 am 08:35 Sunny 58 14.6 53 11.5 82 82 NE 7 11 29.88 1012 10 16.09344 0 0
8:55 am 08:55 Sunny 60 15.6 53 11.4 76 76 ENE 10 17 29.85 1011 10 16.09344 0 0
9:15 am 09:15 Sunny 62 16.5 52 11.2 71 71 ENE 10 17 29.85 1011 10 16.09344 0 0
9:35 am 09:35 Sunny 62 16.8 52 10.9 68 68 ENE 12 19 29.88 1012 10 16.09344 0 0
9:55 am 09:55 Sunny 64 17.6 53 11.7 69 69 NE 9 15 29.88 1012 10 16.09344 0 0
10:15 am 10:15 Sunny 64 18 52 11.2 65 65 ENE 10 17 29.88 1012 10 16.09344 0 0
10:35 am 10:35 Sunny 65 18.1 52 11.3 65 65 NE 8 13 29.88 1012 10 16.09344 0 0
10:55 am 10:55 Sunny 65 18.5 52 11.2 63 63 NE 8 13 29.88 1012 10 16.09344 0 0
11:15 am 11:15 Sunny 66 19 54 12.3 65 65 NE 10 17 29.88 1012 10 16.09344 0 0
11:35 am 11:35 Sunny 66 19.1 53 11.9 63 63 NNE 9 15 29.91 1013 10 16.09344 0 0
11:55 am 11:55 Sunny 67 19.7 55 12.7 64 64 NE 10 17 29.88 1012 10 16.09344 0 0
12:15 pm 12:15 Sunny 68 19.8 54 12.1 61 61 N 5 7 29.88 1012 10 16.09344 0 0
12:35 pm 12:35 Partly Cloudy 69 20.3 55 12.6 61 61 NE 10 17 29.88 1012 10 16.09344 0 0
12:55 pm 12:55 Mostly Cloudy 69 20.4 54 12.4 60 60 NNE 9 15 29.88 1012 10 16.09344 0 0
1:15 pm 13:15 Partly Cloudy 70 21 55 12.8 60 60 NNE 9 15 29.88 1012 10 16.09344 0 0
1:35 pm 13:35 Mostly Cloudy 68 20.2 54 12.1 60 60 N 9 15 29.88 1012 10 16.09344 0 0
1:55 pm 13:55 Cloudy 67 19.5 54 12.1 62 62 N 12 19 29.91 1013 10 16.09344 0 0
2:15 pm 14:15 Cloudy 67 19.2 53 11.7 62 62 N 10 17 29.91 1013 10 16.09344 0 0
2:35 pm 14:35 Cloudy 67 19.5 54 12.4 64 64 N 13 20 29.91 1013 10 16.09344 0 0
2:55 pm 14:55 Cloudy 67 19.7 54 12.2 62 62 N 10 17 29.88 1012 10 16.09344 0 0
3:15 pm 15:15 Cloudy 66 19.1 53 11.8 63 63 NNW 10 17 29.91 1013 10 16.09344 0 0
3:35 pm 15:35 Cloudy 67 19.2 54 12.3 64 64 NNW 15 24 29.91 1013 10 16.09344 0 0
3:55 pm 15:55 Cloudy 66 19 54 12.2 65 65 NNW 13 20 29.91 1013 10 16.09344 0 0
4:15 pm 16:15 Cloudy 65 18.3 54 12.3 68 68 N 12 19 29.91 1013 10 16.09344 0 0
4:35 pm 16:35 Cloudy 66 18.8 55 12.5 67 67 N 15 24 29.91 1013 10 16.09344 0 0
4:55 pm 16:55 Cloudy 67 19.5 56 13.1 67 67 N 14 22 29.91 1013 10 16.09344 0 0
5:15 pm 17:15 Cloudy 68 20.1 55 13 64 64 N 12 19 29.88 1012 10 16.09344 0 0
5:35 pm 17:35 Cloudy 66 18.8 53 11.9 64 64 N 9 15 29.94 1014 10 16.09344 0 0
5:55 pm 17:55 Cloudy 65 18.5 53 11.8 65 65 NNW 12 19 29.94 1014 10 16.09344 0 0
6:15 pm 18:15 Cloudy 65 18.5 54 12 66 66 N 13 20 29.94 1014 10 16.09344 0 0
6:35 pm 18:35 Mostly Cloudy 65 18.4 53 11.8 66 66 N 13 20 29.94 1014 10 16.09344 0 0
6:55 pm 18:55 Partly Cloudy 65 18.2 54 12.1 68 68 N 10 17 29.94 1014 10 16.09344 0 0
7:15 pm 19:15 Partly Cloudy 64 17.7 53 11.4 67 67 NNW 10 17 29.94 1014 10 16.09344 0 0
7:35 pm 19:35 Partly Cloudy 63 17.3 53 11.4 68 68 NNW 10 17 29.97 1015 10 16.09344 0 0
7:55 pm 19:55 Sunny 62 16.7 52 11.1 70 70 NNW 9 15 30 1016 10 16.09344 0 0
8:15 pm 20:15 Sunny 61 16.1 51 10.3 69 69 NNW 10 17 30 1016 10 16.09344 0 0
8:35 pm 20:35 Sunny 60 15.4 51 10.5 73 73 NNW 8 13 30 1016 10 16.09344 0 0
8:55 pm 20:55 Sunny 59 15 51 10.8 76 76 NNW 9 15 30 1016 10 16.09344 0 0
9:15 pm 21:15 Clear 58 14.6 51 10.7 78 78 NW 6 9 30 1016 10 16.09344 0 0
9:35 pm 21:35 Clear 57 13.8 51 10.7 82 82 WNW 7 11 30 1016 10 16.09344 0 0
9:55 pm 21:55 Clear 55 13 51 10.5 85 85 WNW 7 11 30.03 1017 10 16.09344 0 0
10:15 pm 22:15 Clear 55 12.7 51 10.3 85 85 W 7 11 30.03 1017 10 16.09344 0 0
10:35 pm 22:35 Clear 55 12.5 50 10.1 85 85 WNW 7 11 30.03 1017 10 16.09344 0 0
10:55 pm 22:55 Clear 53 11.8 50 9.9 88 88 WNW 6 9 30.03 1017 10 16.09344 0 0
11:15 pm 23:15 Clear 53 11.6 49 9.7 88 88 W 6 9 30.03 1017 10 16.09344 0 0
11:35 pm 23:35 Clear 52 10.9 49 9.2 89 89 W 6 9 30.03 1017 10 16.09344 0 0
11:55 pm 23:55 Clear 51 10.3 48 8.8 91 91 WNW 6 9 30.03 1017 10 16.09344 0 0

Powered by AerisWeather